Estación municipal de Aiguafreda (Osona, P.N. del Montseny)

Consulta los datos en tiempo real de la estación municipal de Aiguafreda





Hora UTC 08:00
Temperatura 23.8 ºC
Suelo 15 cm 22.0 ºC
Humedad 53.2 %
Presión 1019.4 hPa
Pluja 0.0 mm
Velocidad viento 0.0 km/h
Dirección viento NNE

Datos diarios 2026-08-31



Hora UTC (invierno +1h; verano +2h)
Temperatura (ºC) Humedad (%) Presión (hPa) Velocidad viento (km/h) Precipitación (mm)
Hora UTC Aire Suelo 15 cm Humedad Presión Vel. Dir. Vel. Max Dir. Intent. máx 5 min.
00:05 17.5 16.1 64.0 1018.0 0.0 NNE 0.0 S 0.0
00:10 17.4 15.9 64.3 1018.1 0.0 NNE 0.0 SSE 0.0
00:15 17.3 15.8 64.4 1018.1 0.0 NNE 0.0 W 0.0
00:20 17.2 15.7 64.7 1018.1 0.0 NNE 0.0 S 0.0
00:25 17.2 15.7 65.4 1018.1 0.0 NNE 0.0 S 0.0
00:30 17.1 15.7 65.4 1018.1 0.0 NNE 0.0 NNW 0.0
00:35 17.1 15.6 65.3 1018.1 0.0 NNE 0.0 NNW 0.0
00:40 17.0 15.5 65.6 1018.1 0.0 NNE 0.0 S 0.0
00:45 17.0 15.5 65.4 1018.1 0.0 NNE 0.0 WNW 0.0
00:50 16.9 15.4 65.5 1018.1 0.0 NNE 0.0 NNW 0.0
00:55 16.9 15.4 65.5 1018.2 0.0 NNE 0.0 NW 0.0
01:00 16.9 15.4 66.2 1018.2 0.0 NNE 0.0 ESE 0.0
01:05 16.8 15.3 66.4 1018.2 0.0 NNE 0.0 NW 0.0
01:10 16.8 15.3 66.8 1018.2 0.0 NNE 0.0 NW 0.0
01:15 16.7 15.1 67.2 1018.2 0.0 NNE 0.0 NW 0.0
01:20 16.6 15.1 67.7 1018.2 0.0 NNE 0.0 NW 0.0
01:25 16.5 15.0 68.0 1018.2 0.0 NNE 0.0 NE 0.0
01:30 16.5 14.9 68.5 1018.2 0.0 NNE 0.0 NE 0.0
01:35 16.4 14.9 68.7 1018.2 0.0 NNE 0.0 NW 0.0
01:40 16.3 14.8 69.1 1018.2 0.0 NNE 0.0 N 0.0
01:45 16.3 14.8 69.1 1018.2 0.0 NNE 0.0 NNE 0.0
01:50 16.2 14.7 69.4 1018.2 0.0 NNE 0.0 NE 0.0
01:55 16.2 14.7 69.7 1018.2 0.0 NNE 0.0 NNE 0.0
02:00 16.1 14.6 70.3 1018.2 0.0 NNE 0.0 NNE 0.0
02:05 16.1 14.6 70.7 1018.1 0.0 NNE 0.0 NNE 0.0
02:10 16.0 14.5 70.6 1018.1 0.0 NNE 0.0 NNE 0.0
02:15 15.9 14.4 70.8 1018.2 0.0 NNE 0.0 NNE 0.0
02:20 15.9 14.4 71.3 1018.1 0.0 NNE 0.0 NNE 0.0
02:25 15.8 14.3 71.4 1018.1 0.0 NNE 0.0 NNE 0.0
02:30 15.8 14.3 71.6 1018.1 0.0 NNE 0.0 NNW 0.0
02:35 15.7 14.2 71.8 1018.2 0.0 NNE 0.0 NNW 0.0
02:40 15.7 14.2 71.9 1018.2 0.0 NNE 0.0 NNW 0.0
02:45 15.7 14.1 72.2 1018.2 0.0 NNE 0.0 NNW 0.0
02:50 15.6 14.1 72.5 1018.2 0.0 NNE 0.0 NNW 0.0
02:55 15.6 14.1 72.8 1018.3 0.0 NNE 0.0 NNW 0.0
03:00 15.6 14.0 72.8 1018.3 0.0 NNE 0.0 NNW 0.0
03:05 15.5 14.0 73.0 1018.4 0.0 NNE 0.0 NNW 0.0
03:10 15.5 14.0 73.5 1018.4 0.0 NNE 0.0 N 0.0
03:15 15.4 13.9 73.6 1018.4 0.0 NNE 0.0 N 0.0
03:20 15.4 13.9 73.9 1018.4 0.0 NNE 0.0 ENE 0.0
03:25 15.3 13.8 74.0 1018.4 0.0 NNE 0.0 NNE 0.0
03:30 15.3 13.8 74.3 1018.4 0.0 NNE 0.0 NNE 0.0
03:35 15.3 13.8 74.3 1018.4 0.0 NNE 0.0 NNE 0.0
03:40 15.2 13.7 74.4 1018.4 0.0 NNE 0.0 NNE 0.0
03:45 15.2 13.7 74.6 1018.4 0.0 NNE 0.0 NNE 0.0
03:50 15.1 13.7 74.7 1018.4 0.0 NNE 0.0 NNE 0.0
03:55 15.1 13.6 75.4 1018.4 0.0 NNE 0.0 NNE 0.0
04:00 15.0 13.6 75.5 1018.4 0.0 NNE 0.0 NNE 0.0
04:05 15.0 13.5 75.9 1018.4 0.0 NNE 0.0 NNE 0.0
04:10 15.0 13.5 76.1 1018.4 0.0 NNE 0.0 NNE 0.0
04:15 15.0 13.4 76.3 1018.4 0.0 NNE 0.0 SE 0.0
04:20 14.9 13.4 76.4 1018.4 0.0 NNE 0.0 ENE 0.0
04:25 14.9 13.3 76.8 1018.5 0.0 NNE 0.0 ENE 0.0
04:30 14.8 13.3 76.8 1018.5 0.0 NNE 0.0 0.0
04:35 14.8 13.3 77.0 1018.5 0.0 NNE 0.0 0.0
04:40 14.7 13.3 77.1 1018.5 0.0 NNE 0.0 0.0
04:45 14.7 13.2 77.3 1018.5 0.0 NNE 0.0 0.0
04:50 14.6 13.2 77.7 1018.5 0.0 NNE 0.0 0.0
04:55 14.6 13.2 77.8 1018.5 0.0 NNE 0.0 0.0
05:00 14.6 13.2 77.9 1018.5 0.0 NNE 0.0 0.0
05:05 14.6 13.2 78.1 1018.5 0.0 NNE 0.0 0.0
05:10 14.6 13.2 78.4 1018.6 0.0 NNE 0.0 0.0
05:15 14.6 13.2 78.9 1018.6 0.0 NNE 0.0 N 0.0
05:20 14.6 13.1 79.1 1018.7 0.0 NNE 0.0 N 0.0
05:25 14.6 13.1 79.2 1018.8 0.0 NNE 0.0 NE 0.0
05:30 14.6 13.2 79.5 1018.8 0.0 NNE 0.0 NW 0.0
05:35 14.6 13.2 79.6 1018.8 0.0 NNE 0.0 NW 0.0
05:40 14.6 13.2 79.5 1018.9 0.0 NNE 0.0 NW 0.0
05:45 14.6 13.3 79.2 1018.9 0.0 NNE 0.0 NW 0.0
05:50 14.7 13.4 79.1 1018.9 0.0 NNE 0.0 NW 0.0
05:55 14.7 13.4 79.1 1018.9 0.0 NNE 0.0 NW 0.0
06:00 14.7 13.5 79.0 1018.9 0.0 NNE 0.0 NW 0.0
06:05 14.8 13.6 78.9 1019.0 0.0 NNE 0.0 NW 0.0
06:10 14.8 13.7 78.7 1019.0 0.0 NNE 0.0 NW 0.0
06:15 14.9 13.8 78.5 1019.1 0.0 NNE 0.0 ENE 0.0
06:20 15.0 13.9 78.1 1019.1 0.0 NNE 0.0 ENE 0.0
06:25 15.0 14.1 77.7 1019.1 0.0 NNE 0.0 ENE 0.0
06:30 15.2 14.2 77.4 1019.2 0.0 NNE 0.0 SW 0.0
06:35 15.4 14.4 76.5 1019.2 0.0 NNE 0.0 SSE 0.0
06:40 15.6 14.6 75.8 1019.3 0.0 NNE 0.0 SSE 0.0
06:45 15.8 14.9 75.3 1019.3 0.0 NNE 0.0 SE 0.0
06:50 16.1 15.2 74.4 1019.4 0.0 NNE 0.0 SSE 0.0
06:55 16.4 15.5 73.6 1019.4 0.0 NNE 0.0 SSE 0.0
07:00 16.7 15.7 72.7 1019.4 0.0 NNE 0.0 SSE 0.0
07:05 17.1 16.1 71.1 1019.4 0.0 NNE 0.0 SE 0.0
07:10 17.5 16.5 69.8 1019.4 0.0 NNE 0.0 SSE 0.0
07:15 17.9 16.7 69.1 1019.4 0.0 NNE 0.0 SSE 0.0
07:20 18.3 17.2 68.1 1019.4 0.0 NNE 0.0 SSE 0.0
07:25 18.7 17.6 67.1 1019.3 0.0 NNE 0.0 SSE 0.0
07:30 19.1 17.9 66.1 1019.4 0.0 SE 3.4 SE 0.0
07:35 19.5 18.5 64.9 1019.4 0.0 NNE 0.0 SSE 0.0
07:40 20.0 18.8 63.9 1019.4 0.0 NNE 0.0 SSE 0.0
07:45 20.8 19.4 61.6 1019.4 0.0 NNE 0.0 SSW 0.0
07:50 21.8 20.0 58.8 1019.4 0.0 NNE 0.0 S 0.0
07:55 22.9 21.0 55.9 1019.4 0.0 NNE 0.0 S 0.0
08:00 23.8 22.0 53.2 1019.4 0.0 NNE 0.0 SW 0.0
Máxima 23.8 22.0 79.6 1019.4 0.0 NNE 3.4 SE 0.0
Mínima 14.6 13.1 53.2 1018.0
Total 0.0